Regional Weather Roundup
Issued by NWS Little Rock, AR

Home | Current Version | Previous Version | Text Only | Print | Product List | Glossary Off
Versions: 1 2 3 4 5 6 7 8 9 10 11 12 13 14 15 16 17 18 19 20 21 22 23 24 25 26 27 28 29 30 31 32 33

000
ASUS44 KLZK 272305
RWRLZK

WEATHER ROUNDUP FOR ARKANSAS
NATIONAL WEATHER SERVICE LITTLE ROCK AR
600 PM CDT TUE SEP 27 2016

NOTE: "FAIR" INDICATES FEW OR NO CLOUDS BELOW 12,000 FEET WITH NO
SIGNIFICANT WEATHER AND/OR OBSTRUCTIONS TO VISIBILITY.

ARZ001-003-010-029-280000-
NORTHWEST ARKANSAS

CITY           SKY/WX    TMP DP  RH WIND       PRES   REMARKS
FAYETTEVILLE   SUNNY     77  46  33 CALM      29.99F
FORT SMITH     SUNNY     81  38  21 CALM      29.97S
HARRISON       SUNNY     75  49  39 W6        29.99F
BENTONVILLE    SUNNY     79  43  27 W6        29.98F
ROGERS         SUNNY     77  48  35 SW6       29.99F
SILOAM SPGS    SUNNY     81  43  26 SW3       29.98F
HIGHFILL       SUNNY     78  44  29 SW5       29.98F
SPRINGDALE     SUNNY     79  43  27 W6        30.00F
$$

ARZ004-005-016-280000-
NORTH CENTRAL ARKANSAS

CITY           SKY/WX    TMP DP  RH WIND       PRES   REMARKS
BATESVILLE     SUNNY     75  45  33 NW3       29.97S
FLIPPIN        SUNNY     79  46  31 W6        29.95S
MTN HOME       SUNNY     75  51  43 W3        29.96F
$$

ARZ040-041-280000-
WEST CENTRAL ARKANSAS

CITY           SKY/WX    TMP DP  RH WIND       PRES   REMARKS
MENA           SUNNY     79  50  36 CALM      30.01S
MOUNT IDA      SUNNY     74  51  44 CALM      29.98S
$$

ARZ009-017-025-026-028-280000-
NORTHEAST ARKANSAS

CITY           SKY/WX    TMP DP  RH WIND       PRES   REMARKS
CORNING          N/A     75  55  50 S7        29.94S
JONESBORO      CLEAR     78  43  28 NW3       29.94F
NEWPORT        CLEAR     78  46  32 NW5       29.95F
WALNUT RIDGE   CLEAR     79  45  29 W5        29.94F
BLYTHEVILLE    CLEAR     78  46  32 W3        29.94S
$$

ARZ022-023-033-042-044-280000-
CENTRAL ARKANSAS

CITY           SKY/WX    TMP DP  RH WIND       PRES   REMARKS
LITTLE ROCK    MOSUNNY   79  43  27 NW7       29.97F
JACKSONVILLE   SUNNY     78  46  32 SW8       29.96F
SEARCY         SUNNY     78  51  38 SW3       29.97F
HOT SPRINGS    SUNNY     78  47  33 W5        29.98S
RUSSELLVILLE   SUNNY     78  48  34 CALM      29.97F
$$

ARZ036-280000-
EAST ARKANSAS

CITY           SKY/WX    TMP DP  RH WIND       PRES   REMARKS
WEST MEMPHIS   CLEAR     79  38  22 N5        29.94S
$$

ARZ050-053-066-070-073-280000-
SOUTHWEST ARKANSAS

CITY           SKY/WX    TMP DP  RH WIND       PRES   REMARKS
ARKADELPHIA    FAIR      79  55  43 CALM      29.98S
TEXARKANA      MOSUNNY   80  48  32 VRB3      29.99S
EL DORADO      PTSUNNY   75  58  55 CALM      29.98S
DE QUEEN       MOSUNNY   79  54  41 SW6       29.96S
$$

ARZ056-057-069-280000-
SOUTHEAST ARKANSAS

CITY           SKY/WX    TMP DP  RH WIND       PRES   REMARKS
PINE BLUFF     SUNNY     75  42  30 NW6       29.97F
STUTTGART      SUNNY     77  43  29 W6        29.98S
MONTICELLO     CLOUDY    78  51  38 W5        29.97S

$$






USA.gov is the U.S. government's official web portal to all federal, state and local government web resources and services.